Wind_Speed
28 29 30 31 31 30 30 30 29 29 30 29 29 29 29 28 28 27 27 26 26 25 24 24 22 21 21 20 19 18 17 16 15 15 16 18 18 17 17 16 16 15 15 14 14 13 13 12 11 11 10 9 9 8 8 7 7 7 7 6 6 6 7 7 7 7 8 10 12 12 14 16 17 18 19 20 22 23 24 26 28 29 30 30 31
27 28 30 30 31 31 30 30 30 30 30 30 30 30 29 29 28 28 28 27 26 25 24 24 23 22 22 21 20 19 18 17 17 16 16 16 18 19 19 18 18 18 17 16 16 16 15 15 14 14 13 12 12 11 11 10 10 9 9 9 9 9 10 10 10 10 10 11 12 13 14 16 17 18 21 22 23 25 26 28 30 32 32 32 31
26 27 28 29 30 31 31 31 31 31 31 31 31 30 29 29 29 29 28 27 27 25 25 24 24 23 23 22 21 20 19 18 18 17 16 15 16 18 19 19 20 20 20 19 19 19 18 17 17 17 16 16 15 14 14 13 13 13 12 12 12 12 13 12 12 12 12 12 13 14 16 17 19 20 22 23 25 26 28 29 30 31 31 30 30
25 26 27 28 29 30 31 31 31 31 31 31 31 30 29 29 29 29 29 28 27 25 25 25 24 23 23 23 22 21 19 19 19 18 17 16 16 17 18 19 20 21 21 21 22 21 21 20 20 20 20 19 17 17 17 16 16 16 15 15 15 15 16 16 15 16 16 15 15 16 17 19 20 22 23 25 26 27 28 29 30 30 28 27 27
24 24 26 28 29 29 30 31 31 32 32 32 31 30 30 29 29 29 29 29 27 26 25 26 24 23 22 22 21 20 20 19 19 18 17 17 16 17 18 19 19 20 22 22 23 23 23 22 22 22 22 21 20 20 19 19 18 18 18 18 18 19 19 19 19 19 19 18 18 19 20 22 22 22 23 24 25 26 26 27 27 27 26 26 26
25 24 26 28 29 29 30 30 30 31 32 32 31 31 31 29 29 29 29 29 29 27 26 26 24 22 21 22 21 20 20 20 19 18 17 17 16 17 18 19 19 20 21 22 23 23 24 23 23 24 24 23 22 22 22 21 21 21 21 20 21 21 21 21 21 21 21 21 21 21 22 23 23 23 23 24 24 24 25 24 24 24 24 26 28
27 25 26 27 28 29 29 30 29 30 30 31 32 32 31 30 29 28 28 29 29 28 27 26 25 23 22 22 21 20 20 20 19 18 18 17 17 17 18 18 18 19 20 21 22 23 24 24 24 25 25 24 24 23 23 23 23 23 23 23 23 23 23 23 23 23 23 23 23 23 23 23 23 23 23 23 23 23 23 23 22 23 25 28 33
28 27 27 27 27 27 28 29 30 30 30 31 32 32 32 31 30 29 28 28 28 28 27 26 25 24 23 23 23 22 21 21 20 19 19 18 17 17 17 18 18 18 18 19 21 22 23 23 23 24 24 24 24 24 25 24 24 24 24 24 24 24 24 25 25 24 24 24 24 24 24 23 22 22 22 21 22 23 23 24 25 26 28 31 36
30 28 28 28 27 26 27 29 31 32 32 33 32 32 32 32 32 30 29 28 28 28 27 27 26 25 25 24 24 23 22 21 21 20 19 19 18 17 17 18 18 19 18 18 20 21 22 22 22 23 23 24 23 24 24 25 25 25 25 24 25 25 25 25 24 24 24 24 24 24 24 23 21 21 21 20 22 25 26 28 30 32 33 33 34
32 30 28 28 28 27 27 29 30 32 33 33 33 33 32 32 33 32 30 29 29 28 28 27 26 25 25 25 25 25 23 21 20 19 19 18 18 19 19 18 18 19 19 19 19 20 21 22 22 23 23 23 22 22 23 24 24 24 24 24 24 24 24 24 23 23 23 23 23 22 22 21 20 20 21 22 24 27 29 32 34 35 35 33 31
35 32 30 29 29 29 28 29 30 31 32 33 33 34 34 33 33 33 32 31 31 30 30 29 28 26 25 25 25 25 24 23 21 20 19 19 19 20 20 19 19 20 20 20 19 20 21 21 22 23 24 23 22 21 22 23 23 23 23 23 23 23 22 22 21 21 21 21 21 21 20 19 18 19 21 24 26 28 30 33 35 35 35 34 32
37 35 32 30 30 30 29 29 29 30 31 32 32 34 35 34 34 33 33 31 31 31 31 30 29 27 26 26 26 25 25 24 23 21 20 20 20 21 21 21 20 20 20 20 20 20 21 21 22 22 23 23 21 20 21 22 22 22 22 22 22 21 20 20 20 20 20 20 20 19 18 18 18 19 23 26 28 28 30 33 36 37 37 37 36
40 38 36 33 31 30 30 29 29 29 30 31 31 33 35 35 34 34 32 31 31 32 32 31 29 28 27 27 26 26 25 25 24 23 21 21 22 22 22 22 22 21 21 21 21 21 21 21 22 22 23 23 21 20 20 20 21 21 21 21 21 20 19 19 19 19 19 19 19 18 16 17 19 20 24 27 29 30 33 35 37 39 40 39 38
43 41 39 36 34 31 30 29 29 29 29 30 31 32 35 35 34 34 33 32 32 32 32 32 30 29 28 28 27 26 25 26 26 24 23 22 23 23 24 23 23 23 22 22 22 22 22 22 22 23 23 23 22 21 19 20 20 20 21 21 20 19 18 19 19 19 18 18 18 17 16 18 20 21 24 28 31 33 35 37 39 40 40 39 37
44 43 42 39 37 34 31 30 30 30 31 31 30 31 33 35 35 34 34 33 32 32 32 32 31 30 29 28 28 27 27 28 27 25 24 23 24 24 25 25 25 24 24 23 22 22 22 22 23 23 23 24 23 22 20 20 21 21 20 20 18 17 18 18 18 19 19 19 18 18 18 19 21 23 25 29 33 36 37 39 40 40 39 38 36
43 44 44 42 40 37 33 31 31 32 32 32 31 30 31 33 34 34 34 33 33 32 32 32 32 31 30 29 29 28 28 29 29 26 24 24 25 26 27 27 27 26 25 24 23 22 22 23 23 24 24 23 23 22 21 21 21 21 20 19 18 17 17 18 18 18 19 19 19 19 20 21 23 24 26 29 33 36 38 39 40 39 37 36 35
40 42 43 43 42 39 36 33 32 32 33 33 32 30 30 32 33 33 33 33 33 33 32 33 32 31 30 30 30 29 29 29 29 27 25 25 27 28 28 28 28 27 26 25 24 23 23 23 23 24 23 23 22 22 21 20 21 21 20 19 19 18 18 18 19 19 19 19 19 21 22 24 26 27 28 30 33 35 37 39 39 37 35 34 34
38 39 41 43 43 41 39 35 33 33 33 33 32 31 30 30 31 31 32 32 32 33 32 32 33 32 31 31 31 30 30 30 30 29 27 27 27 28 29 29 29 28 27 26 25 24 24 23 23 23 23 22 22 21 20 20 20 20 20 21 20 19 18 18 19 20 19 19 21 23 24 27 29 31 33 34 36 37 39 39 37 34 33 33 34
35 35 38 42 44 43 41 38 34 33 33 33 33 31 30 29 29 29 30 30 31 32 31 32 32 32 32 32 32 31 31 32 32 30 29 28 28 28 30 30 30 29 28 27 26 25 24 22 22 22 21 22 22 21 19 19 20 21 22 23 22 20 19 19 19 20 20 21 24 26 28 30 33 35 38 39 40 41 40 38 35 33 32 32 34
33 35 38 42 44 44 43 40 36 34 33 32 32 32 31 29 29 28 28 29 30 31 31 32 32 32 32 32 33 33 32 32 32 30 29 28 28 29 31 31 31 30 28 28 27 25 24 22 22 21 21 22 22 22 20 20 21 23 24 24 23 21 19 19 19 20 21 23 25 28 30 33 35 38 40 41 41 42 40 36 34 32 32 33 33
33 36 38 41 43 44 43 40 36 34 32 32 32 32 31 30 29 28 28 29 31 31 32 32 32 31 31 31 32 32 31 31 32 31 29 28 28 29 32 32 31 30 29 28 27 26 24 23 22 21 21 22 23 24 23 22 23 24 24 24 24 21 19 20 20 21 22 23 26 29 31 34 36 38 41 42 42 41 39 36 34 32 32 34 34
34 36 38 40 42 44 43 40 37 34 33 33 32 32 31 30 30 29 29 30 31 31 31 31 31 30 29 29 30 31 30 30 32 31 29 28 29 30 32 32 32 31 30 29 27 26 25 24 24 23 22 23 24 25 25 25 25 24 24 25 24 22 21 21 22 22 23 24 27 30 32 35 38 39 41 41 40 40 38 35 32 31 32 33 33
35 36 38 40 42 42 42 39 36 35 34 33 32 31 31 31 31 31 30 30 31 31 31 30 29 29 28 29 30 30 30 31 31 31 30 29 30 30 32 32 32 31 31 30 28 26 26 26 26 25 24 24 25 25 27 28 27 25 24 25 24 22 22 23 23 24 25 26 29 32 34 37 39 40 40 39 38 37 36 32 31 31 32 32 33
36 37 38 40 41 41 41 38 36 35 34 33 32 31 31 31 32 32 31 31 32 31 30 30 29 29 29 29 30 29 29 30 31 31 30 30 30 30 31 32 32 32 31 31 29 28 28 28 28 28 27 26 26 26 27 29 28 26 25 25 24 23 24 24 25 26 27 29 31 34 36 38 39 40 39 38 37 35 34 31 30 30 31 31 32
38 38 39 39 40 40 39 36 35 34 34 32 31 31 31 32 32 33 32 32 31 31 30 30 30 30 30 30 29 29 28 29 30 30 30 30 30 30 31 32 33 33 32 32 31 30 30 29 29 29 29 28 27 27 27 29 28 27 26 25 25 25 25 25 27 28 29 31 34 36 38 40 40 40 39 37 35 34 33 31 29 29 30 30 30
40 39 39 39 39 38 37 35 34 34 33 32 31 32 32 32 32 32 31 31 31 31 30 30 30 30 30 30 30 30 29 29 30 30 30 30 30 31 31 32 33 34 34 33 32 32 31 30 30 29 29 29 28 27 27 28 29 28 28 27 26 26 26 27 28 30 32 34 36 38 39 41 42 41 40 38 36 35 33 30 29 29 29 28 28
41 40 40 39 38 37 36 35 35 34 33 32 32 32 32 32 32 32 31 30 30 30 30 30 30 30 30 29 30 30 30 30 30 30 29 29 29 30 30 31 32 34 34 34 33 32 31 31 30 29 29 29 28 27 28 28 29 29 29 28 27 27 28 28 30 32 34 36 38 39 41 42 43 42 40 38 37 35 33 30 30 29 28 28 27
42 42 41 39 38 37 36 35 34 34 32 32 32 32 32 31 31 31 30 30 31 31 31 30 30 30 30 30 30 31 31 31 31 31 30 28 28 28 29 29 31 33 33 33 32 32 32 31 30 30 29 28 28 28 28 28 29 29 29 29 29 29 30 31 33 35 36 38 39 41 42 43 43 41 39 38 38 35 32 30 30 29 28 28 28
44 43 41 40 38 37 36 35 35 34 33 32 32 32 32 32 32 31 31 31 32 32 32 32 32 32 31 31 32 32 31 31 31 31 32 31 30 30 30 30 31 33 33 32 32 32 32 32 31 30 30 29 29 29 29 28 29 30 30 31 31 32 33 35 36 37 38 40 41 42 43 43 42 39 38 39 37 33 31 30 30 29 29 28 28
46 44 42 41 40 39 38 37 36 35 34 33 33 32 32 32 32 32 32 32 32 33 33 32 31 31 30 30 30 29 28 28 28 30 32 33 33 32 32 33 34 35 34 33 33 33 33 32 31 30 30 30 30 30 30 30 30 31 32 33 34 35 36 37 39 40 41 41 42 43 43 42 40 38 38 38 34 31 30 30 29 29 28 28 28
46 45 44 44 43 41 40 39 38 36 35 34 33 32 31 32 32 31 31 31 30 31 30 29 28 28 27 28 29 27 27 27 27 28 31 33 33 33 33 35 36 36 35 33 33 33 32 32 31 30 31 32 31 31 31 31 31 32 34 35 36 38 39 40 41 42 42 42 43 42 41 40 39 39 37 34 31 30 30 29 28 28 28 27 27
48 47 46 46 44 43 42 41 39 38 36 35 34 31 30 31 30 29 28 28 27 27 27 27 26 26 26 27 27 27 26 26 26 27 29 30 32 33 33 34 35 35 35 34 34 34 33 33 32 31 32 33 33 32 33 34 33 34 36 37 39 40 41 43 44 43 42 42 42 41 40 39 39 37 34 31 29 29 29 28 28 28 27 27 27
49 49 49 48 47 46 44 42 40 38 36 34 32 29 27 26 27 26 26 25 25 25 26 27 26 26 26 27 27 27 26 26 27 27 28 29 30 31 32 32 32 33 34 35 35 35 34 34 34 33 33 34 33 33 34 36 37 38 39 40 42 43 44 44 44 43 43 43 41 39 38 37 35 33 30 29 28 28 28 28 27 27 27 26 27
50 50 49 49 47 45 43 41 38 36 34 31 28 26 24 24 24 24 23 23 24 24 24 25 25 25 26 27 27 27 27 27 27 28 28 29 29 29 29 29 29 30 32 32 32 32 33 34 35 34 33 33 33 34 35 36 38 40 40 40 43 44 43 42 41 41 41 39 37 36 35 34 32 30 29 28 27 27 27 27 27 27 26 26 26
50 50 48 47 45 42 40 37 34 32 30 28 26 24 23 23 23 22 22 22 23 23 23 24 24 24 25 26 26 27 27 27 28 28 29 30 30 29 28 28 27 28 28 28 28 29 30 31 32 33 32 33 34 35 35 36 36 38 39 40 42 42 39 37 37 37 35 33 32 33 33 32 31 30 28 28 28 27 26 27 27 27 26 26 26
47 47 45 43 41 39 36 33 31 31 30 29 28 27 26 25 25 24 24 24 24 25 25 25 25 26 26 26 26 27 27 28 29 29 29 29 29 29 29 29 27 26 26 27 27 28 29 30 31 31 31 32 33 34 35 35 35 35 37 39 39 35 32 33 35 35 31 30 32 32 31 30 30 29 29 29 28 27 27 27 27 27 26 26 26
45 44 42 40 37 34 32 31 31 32 32 31 31 31 30 28 26 26 26 27 27 27 27 26 27 28 28 27 28 28 28 28 28 27 26 27 28 27 28 29 28 27 27 28 28 28 28 29 30 30 30 31 33 34 35 35 34 34 35 35 33 30 31 34 35 33 31 32 33 32 30 30 30 29 28 29 28 28 28 27 27 27 28 27 26
46 44 42 41 39 36 35 34 35 35 34 33 32 32 31 29 28 28 29 30 30 31 30 29 28 28 28 29 30 30 30 30 30 28 27 27 27 26 27 29 30 30 30 30 30 29 29 30 30 30 31 32 34 36 37 36 34 33 33 31 29 31 35 36 34 33 33 33 33 32 30 30 31 29 29 29 29 28 29 28 27 28 28 28 27
47 46 44 44 42 41 40 41 41 40 38 37 36 34 32 31 31 32 31 31 31 31 31 29 26 26 27 30 31 32 33 34 33 32 31 31 31 31 31 33 33 32 31 31 30 30 31 32 31 32 33 34 35 36 36 34 32 32 33 32 32 36 38 37 34 33 33 33 33 33 31 30 30 30 29 29 29 29 29 29 28 28 28 27 28
46 48 47 45 45 46 45 44 42 40 39 38 36 35 34 34 34 33 31 31 30 30 29 28 26 26 28 30 30 32 33 34 34 34 33 33 34 34 35 35 35 33 32 31 31 32 34 34 34 33 33 33 34 34 35 35 34 34 35 35 36 38 38 37 35 34 33 32 33 34 32 30 30 30 30 30 29 29 29 29 29 29 28 27 27
44 46 46 46 47 47 44 40 37 36 36 36 35 35 35 35 35 34 32 32 33 31 30 30 30 30 31 31 31 32 33 33 33 33 32 33 34 35 35 36 35 35 34 33 32 33 34 34 34 33 33 33 34 34 35 37 38 38 36 36 38 40 39 36 34 32 32 33 33 32 31 30 30 31 30 30 30 29 28 28 29 29 28 27 26
41 43 45 47 46 44 40 37 35 34 34 35 35 35 36 36 36 36 35 36 36 35 35 35 34 33 32 33 33 34 34 33 32 31 31 32 32 33 34 35 35 35 34 33 32 32 33 34 34 35 35 35 35 35 36 38 39 40 39 37 36 36 35 32 31 31 31 32 32 31 31 31 31 30 30 30 30 29 28 28 29 28 27 27 27
39 40 42 43 42 40 37 35 34 33 33 34 35 35 35 35 36 36 36 36 36 36 36 35 34 34 34 34 34 34 34 33 33 32 32 32 32 32 33 33 32 31 32 32 33 34 35 35 35 36 37 36 35 36 38 38 39 40 39 35 33 33 33 33 32 31 30 31 31 32 32 32 31 30 30 30 30 29 28 28 27 26 27 27 27
37 37 38 39 39 38 37 35 33 32 33 34 34 33 32 32 31 31 31 32 32 32 32 32 32 33 33 33 34 34 35 34 34 33 33 33 33 33 32 30 29 29 30 32 34 35 35 36 36 37 39 39 37 36 37 38 37 35 34 32 31 32 32 31 30 29 30 30 31 32 32 32 31 31 30 30 29 30 30 28 27 26 27 28 27
34 33 34 36 37 37 37 36 34 34 34 35 33 30 28 28 28 27 27 28 28 28 29 29 29 29 30 32 33 34 34 33 33 32 32 33 33 33 32 30 29 30 32 34 35 35 35 37 38 38 38 38 36 34 35 36 35 33 33 32 33 32 30 29 30 31 31 31 31 31 32 32 31 31 30 30 30 30 30 29 28 28 29 29 29
35 32 32 34 35 36 37 36 35 35 35 34 31 27 26 26 26 25 25 26 26 26 27 27 27 27 28 29 30 29 30 30 30 30 30 31 32 32 31 30 29 30 31 32 32 32 32 35 36 36 36 36 35 34 35 36 35 34 33 32 32 31 30 30 31 32 31 31 31 32 32 31 31 31 32 31 30 30 30 31 30 30 30 30 30
30 31 33 35 35 36 37 37 36 35 33 30 26 25 25 25 25 25 25 25 24 24 25 25 26 27 28 28 27 27 28 29 29 28 28 29 30 31 30 29 29 30 30 30 29 28 28 29 32 34 36 36 34 33 34 35 35 33 32 31 30 31 31 31 31 31 31 31 32 31 31 31 31 32 33 32 31 30 31 32 32 32 32 33 32
18 22 27 31 33 33 33 33 33 33 31 27 24 24 24 25 25 25 24 24 23 23 23 23 25 27 27 28 28 28 28 29 29 28 26 26 26 28 28 28 27 27 27 27 27 27 27 29 31 33 34 34 32 32 33 33 32 31 30 30 30 30 31 31 32 32 32 32 31 31 31 31 32 33 33 33 33 33 33 34 35 35 35 35 34
11 13 18 22 25 27 27 27 27 27 26 25 24 23 23 23 23 24 24 23 23 23 24 25 26 27 27 27 27 27 27 27 28 27 26 25 24 26 27 27 26 26 25 26 26 26 27 29 31 32 33 33 32 32 32 31 31 31 30 30 31 32 32 33 33 33 32 32 32 32 33 33 34 34 34 35 35 35 36 36 37 37 37 36 36
9 11 13 15 18 21 24 24 23 22 21 21 22 22 22 22 22 22 23 23 24 25 26 27 27 27 27 26 26 25 25 25 25 25 26 25 25 26 27 26 26 25 26 26 27 27 28 29 30 31 32 33 32 32 32 31 32 32 31 32 32 33 33 33 33 32 32 33 33 34 35 35 35 35 36 36 36 37 37 38 37 37 37 37 37
7 8 10 12 14 17 20 21 21 19 18 18 18 19 20 21 21 22 22 23 24 25 26 26 26 26 26 25 24 23 23 23 23 23 23 23 24 24 24 24 24 25 26 27 28 28 29 30 30 31 32 33 33 33 32 32 32 32 32 32 33 33 33 33 33 33 33 34 35 36 36 36 36 36 36 36 36 37 37 37 37 37 37 36 36
Wind_Direction
221 221 222 224 225 225 224 223 221 220 221 221 220 220 219 218 219 222 223 223 223 221 220 221 219 217 219 221 221 222 223 223 223 221 218 215 214 216 216 213 213 215 216 218 220 220 221 224 228 232 232 233 239 244 245 246 245 245 250 256 263 267 268 271 271 268 278 291 300 305 307 310 314 318 319 319 320 320 320 319 317 317 319 320 320
221 220 220 222 223 224 224 223 221 221 220 221 221 220 220 220 220 223 224 225 225 224 223 224 223 220 220 223 224 225 227 227 227 227 227 223 219 221 223 221 219 222 225 226 229 231 231 233 237 242 244 245 248 253 257 260 262 261 262 266 270 275 275 274 277 278 279 283 288 291 294 298 301 305 309 310 311 311 312 313 313 315 317 318 317
222 220 220 220 221 222 223 223 222 222 221 221 222 222 221 221 222 224 226 227 227 226 226 226 225 222 222 224 226 228 231 232 232 233 233 231 226 226 228 227 225 227 229 231 233 237 238 239 243 246 248 250 253 257 260 264 268 271 274 275 276 279 280 280 281 282 283 285 287 291 293 295 298 302 304 306 307 308 309 310 310 310 312 314 313
223 221 219 219 219 220 222 223 223 222 222 222 223 223 223 223 224 225 227 229 229 228 228 229 227 224 224 226 227 230 234 236 237 238 238 239 237 234 235 234 232 231 233 234 236 239 241 242 245 248 251 252 255 258 261 264 268 271 275 277 279 280 282 284 286 287 288 288 291 294 294 295 297 299 302 304 305 306 306 306 306 306 310 312 312
224 221 219 218 218 218 219 221 223 223 223 224 224 224 224 225 226 227 227 229 231 230 230 231 229 226 226 228 230 231 234 237 239 242 243 244 243 241 240 240 238 237 237 239 240 242 244 245 246 249 252 254 255 259 262 266 269 272 274 277 279 281 282 285 287 289 291 292 293 295 295 297 298 299 302 302 301 302 302 302 303 306 310 312 312
224 222 219 219 218 217 217 219 221 223 225 226 225 225 225 225 226 228 229 230 232 231 231 233 232 229 228 230 232 231 233 236 238 242 245 246 245 245 245 243 242 241 241 242 244 245 247 248 249 251 254 256 257 260 263 266 270 272 275 277 280 282 284 286 288 290 291 292 293 295 296 299 300 303 305 303 302 302 301 300 303 306 309 309 311
224 222 219 219 219 217 216 216 219 221 223 225 227 227 226 225 225 227 229 231 233 233 233 235 235 233 231 233 234 233 232 234 237 239 242 246 246 246 248 249 247 244 245 246 248 249 250 251 252 254 256 258 259 262 264 266 269 271 274 277 279 281 284 286 288 289 291 292 295 296 297 298 301 305 305 303 302 301 300 303 307 310 313 314 316
225 223 220 220 220 218 217 216 217 218 219 223 226 228 227 226 226 227 228 231 233 235 235 236 237 236 235 236 238 238 235 235 236 237 239 244 248 248 249 252 252 249 247 248 250 252 254 254 254 255 257 259 259 261 263 265 268 270 272 274 277 279 281 283 286 288 290 293 295 296 297 298 302 306 304 303 302 302 308 314 315 317 319 318 319
224 223 220 221 222 220 218 217 217 217 218 219 223 226 227 228 230 230 229 231 234 236 236 237 237 238 238 238 240 242 241 239 238 239 238 241 247 250 249 250 254 254 251 250 250 252 255 256 256 257 258 258 259 260 262 264 266 268 270 272 274 277 279 281 284 287 290 292 294 295 296 301 307 308 306 307 307 310 318 321 319 320 321 320 321
224 223 221 221 223 222 219 218 217 217 218 219 220 224 226 227 231 232 231 231 234 235 236 237 237 238 239 240 242 244 246 244 242 242 241 241 243 248 250 249 250 253 253 252 251 253 255 256 257 258 259 259 259 260 262 263 264 267 269 271 273 275 278 281 283 287 290 291 292 294 296 303 309 308 307 310 312 315 322 322 319 320 322 322 322
224 224 222 220 222 223 221 220 219 218 219 220 220 222 224 226 229 232 233 233 234 236 237 238 239 240 242 243 243 245 247 248 245 243 242 243 242 244 248 250 249 251 253 253 253 254 256 257 257 259 261 261 261 261 261 263 264 266 268 271 273 274 277 281 283 286 288 288 290 293 298 303 305 305 310 313 314 317 321 320 317 319 323 323 323
224 225 224 222 222 222 222 222 222 221 221 222 221 222 223 225 227 231 234 233 234 236 237 238 240 241 243 244 244 243 244 246 245 242 241 243 244 244 246 248 249 249 251 254 254 255 257 259 260 261 262 264 264 262 262 264 266 267 267 268 270 273 276 280 282 284 286 286 288 292 299 301 300 306 314 314 313 316 317 316 317 320 322 322 322
224 225 224 224 223 223 222 222 222 222 222 222 222 222 224 225 226 228 232 233 234 236 237 238 238 240 242 243 243 242 242 243 243 241 240 241 243 245 245 247 248 249 250 252 254 256 258 260 262 264 266 267 268 266 265 266 266 267 268 268 269 272 276 278 280 283 285 285 287 292 298 298 297 306 314 312 311 314 314 315 318 320 322 322 322
224 225 225 225 225 224 223 222 221 221 222 223 223 222 223 225 225 227 229 232 233 234 236 236 236 237 239 241 242 241 241 242 241 240 239 239 241 244 246 247 247 248 249 250 252 256 258 260 262 263 265 267 269 269 268 268 268 267 267 268 270 274 277 280 283 285 285 285 287 292 297 297 297 303 309 310 311 312 313 315 318 320 320 320 320
224 224 225 226 226 225 224 222 221 221 221 222 224 223 223 223 224 225 227 229 231 232 235 236 236 235 236 238 240 239 238 240 240 238 237 238 240 242 244 246 246 247 248 249 251 254 257 259 260 261 261 264 267 270 271 271 269 267 265 266 269 272 276 279 282 284 285 286 289 293 297 298 298 301 306 308 309 311 312 314 317 319 318 317 317
224 224 225 226 227 226 225 223 222 221 220 222 223 223 222 222 223 223 224 227 230 231 232 234 235 234 234 236 237 236 236 237 238 237 235 236 240 241 241 244 246 247 248 250 252 254 256 257 258 259 259 260 263 266 269 268 267 266 266 268 269 271 274 277 278 277 278 281 286 291 294 296 298 300 302 304 307 309 312 315 317 317 316 315 315
224 224 224 226 228 227 225 224 223 222 220 221 223 223 223 222 222 222 223 225 228 230 230 232 234 233 233 233 234 235 235 235 236 236 234 234 238 242 242 242 245 247 249 251 253 254 255 256 257 258 259 260 261 262 263 263 264 265 267 270 272 273 275 279 280 277 277 281 286 290 293 296 299 301 302 304 307 310 313 315 316 314 313 313 311
226 226 224 226 228 227 226 226 225 224 222 221 222 224 223 223 222 222 222 224 227 230 231 231 232 233 232 232 233 234 235 235 235 235 233 233 237 241 243 243 245 247 249 251 253 254 254 255 255 256 257 258 259 259 257 257 259 262 265 269 271 273 275 277 276 276 280 286 290 293 297 301 303 305 307 309 311 312 313 314 314 312 311 309 307
229 227 225 225 225 226 227 227 227 226 224 222 222 224 224 225 224 223 223 224 226 229 231 230 231 231 231 232 233 233 234 237 236 233 232 233 236 240 243 245 246 248 250 252 254 254 255 254 253 253 254 254 256 256 254 255 256 260 263 267 269 272 273 271 270 273 281 288 293 298 302 305 306 308 310 311 312 312 313 314 313 310 308 307 308
231 228 225 223 223 225 227 228 228 228 226 223 222 224 225 226 226 225 225 225 226 228 230 230 230 230 230 232 233 233 233 236 238 235 233 234 235 238 242 245 247 250 251 253 254 255 255 254 253 251 250 251 253 254 253 253 256 259 262 265 268 270 268 266 267 272 278 285 291 297 301 303 305 307 309 310 310 311 313 315 313 309 309 310 312
230 227 224 222 222 224 226 228 228 228 227 224 223 224 224 226 227 226 226 226 227 228 229 231 231 231 230 232 235 235 233 235 238 237 234 233 233 237 242 245 248 251 252 253 255 255 254 253 252 251 248 249 252 254 255 255 256 259 262 265 267 267 264 263 266 271 277 283 290 294 297 300 303 306 308 309 310 312 314 314 311 310 311 312 313
230 228 225 222 223 224 226 227 227 227 227 224 223 223 223 225 227 226 226 227 228 228 230 232 233 232 232 233 236 236 235 234 236 237 235 233 232 235 240 245 248 251 253 253 254 255 255 254 252 251 249 249 251 254 257 258 258 258 262 264 264 261 259 261 266 273 280 286 290 293 297 300 302 305 307 307 309 311 312 309 307 308 311 311 311
229 228 224 223 224 225 225 225 226 227 226 223 222 222 222 223 225 225 225 226 227 228 228 230 232 232 232 234 235 237 236 235 236 237 235 233 232 233 239 244 247 250 252 254 255 255 256 256 255 255 253 251 251 253 255 258 259 260 261 260 257 255 257 262 269 276 282 287 291 294 297 299 301 304 305 306 308 310 308 304 304 307 308 308 309
226 225 223 223 224 223 223 224 225 226 226 223 221 221 221 222 223 224 224 224 226 227 227 228 230 231 231 233 234 236 237 237 236 236 235 234 233 234 237 242 246 249 252 254 256 256 256 257 258 258 258 256 254 253 255 257 260 261 258 253 249 252 258 265 271 278 283 288 291 294 296 298 300 303 304 305 306 306 303 301 302 304 304 306 309
220 221 221 221 221 221 222 223 224 224 223 222 220 220 220 220 222 223 223 223 225 226 227 228 230 231 231 232 233 234 235 236 236 235 234 234 235 235 237 240 245 249 251 253 255 257 259 259 259 260 261 261 258 257 256 258 261 261 255 248 247 253 259 266 273 279 284 288 290 292 294 297 300 302 302 302 303 303 301 299 299 301 302 304 308
215 216 216 217 217 219 221 221 220 220 221 220 218 218 219 220 222 223 223 223 225 227 229 229 230 231 232 232 232 234 235 237 239 239 238 237 237 238 238 240 244 248 251 252 254 257 259 260 261 261 262 262 261 259 258 259 260 257 251 246 249 255 260 267 274 280 283 286 288 291 294 296 299 300 299 298 300 302 300 297 297 298 300 302 306
210 209 209 211 213 216 217 216 215 216 217 216 215 215 217 218 220 222 222 222 225 227 228 229 230 231 232 233 235 236 237 238 241 243 242 240 239 239 240 242 244 247 251 253 255 257 259 261 262 263 262 262 262 260 258 257 256 252 247 247 252 258 264 269 275 278 281 284 286 289 293 295 297 298 297 297 299 300 297 295 295 296 297 299 302
204 203 204 207 211 213 212 210 210 211 211 211 211 212 215 217 220 222 224 225 228 230 232 234 236 237 239 241 243 244 245 245 247 249 249 247 245 244 244 244 246 248 251 254 255 257 258 259 260 261 262 261 261 260 258 255 252 248 246 249 254 260 266 271 274 277 280 283 285 288 291 293 294 295 294 294 296 296 294 292 293 294 296 298 301
199 200 202 206 207 206 204 203 205 207 210 212 214 216 219 223 226 230 232 234 236 240 242 243 245 247 248 249 250 252 252 252 252 253 252 250 249 247 245 244 245 246 248 250 251 252 254 255 255 256 258 259 259 259 257 252 248 245 247 251 257 261 266 270 274 277 280 283 285 288 290 292 292 292 291 293 294 293 290 290 291 293 295 297 301
197 198 202 204 203 201 201 203 206 211 215 219 222 225 228 231 234 237 239 240 242 244 246 247 248 248 249 250 250 249 248 247 247 247 247 247 246 245 244 243 244 244 245 246 248 250 252 254 254 254 254 256 256 255 255 252 248 246 249 253 259 263 268 272 275 278 281 283 285 287 290 291 290 289 289 291 290 288 287 288 290 292 294 297 302
197 199 201 202 201 201 204 208 211 216 220 225 229 232 234 236 239 241 243 244 244 245 246 247 247 246 246 246 246 243 242 242 243 244 245 245 245 243 242 243 244 246 247 248 250 252 254 256 257 256 255 256 256 255 256 255 253 251 254 258 262 267 270 273 275 277 279 282 283 285 287 287 286 286 286 286 285 285 286 288 289 292 294 298 303
198 201 202 202 204 206 210 213 216 220 224 228 231 235 237 238 240 242 242 242 241 241 242 243 243 244 245 245 244 243 243 244 245 246 247 249 249 246 244 244 246 249 250 251 252 254 255 257 259 258 257 257 258 258 258 259 259 258 259 261 265 268 270 272 274 276 278 279 280 282 283 283 283 283 283 282 283 285 287 289 291 293 296 299 303
201 204 205 206 208 211 213 216 220 223 227 229 232 234 235 237 238 239 239 239 238 238 239 240 241 243 245 246 245 245 245 245 247 248 249 250 251 251 249 249 250 251 252 253 254 256 258 260 261 261 261 261 262 261 260 260 260 260 261 263 265 267 269 271 273 276 277 278 278 279 280 281 281 281 281 282 284 285 287 290 292 294 296 299 302
204 207 209 211 213 214 216 219 221 223 224 225 227 229 229 230 231 233 233 234 234 234 235 238 240 241 243 245 246 247 247 247 248 248 249 249 250 251 252 252 252 251 252 253 254 256 258 260 261 263 264 265 265 264 263 261 261 262 264 264 265 266 269 272 274 275 277 278 278 278 279 281 282 281 281 282 283 284 287 289 291 292 295 297 300
206 208 210 212 214 214 216 217 218 218 218 218 218 218 217 218 220 222 223 224 226 228 229 232 235 238 240 242 244 246 247 248 247 247 248 250 251 251 252 252 251 251 252 253 255 256 258 259 261 263 265 266 267 267 268 268 268 268 267 266 267 270 272 273 273 276 277 277 277 278 280 281 281 280 280 280 282 284 286 287 289 291 293 295 298
205 207 209 211 213 212 211 211 211 212 211 209 206 206 208 212 217 221 224 225 226 228 229 230 232 236 238 241 243 244 245 247 248 249 251 252 253 253 253 254 253 253 253 254 254 255 256 258 261 263 266 269 270 271 272 272 272 271 270 270 272 274 271 268 270 274 274 273 275 277 279 277 276 278 279 280 282 284 285 286 288 290 291 293 296
203 204 206 207 207 206 204 205 207 207 205 203 203 206 210 216 221 226 230 232 233 234 236 237 237 238 241 244 246 247 248 250 251 251 250 251 253 253 253 254 254 253 253 253 253 254 257 260 262 264 267 268 268 268 268 269 270 271 271 273 274 271 264 263 267 268 267 268 272 276 277 276 276 277 278 280 282 284 285 286 287 288 289 292 295
201 202 202 201 198 197 199 203 204 203 204 207 212 215 218 221 226 230 234 238 242 243 243 242 241 242 244 245 245 246 249 252 251 248 246 248 251 252 251 252 252 251 251 252 254 256 258 260 262 263 264 265 265 266 266 268 271 273 272 270 268 264 261 260 261 262 263 267 273 276 276 276 276 276 277 279 281 283 284 285 286 287 290 294 297
199 199 199 197 194 194 197 200 201 204 209 215 219 220 221 224 227 231 235 240 245 247 246 244 244 247 249 248 246 246 248 250 250 249 247 247 250 251 251 251 251 251 252 254 257 258 258 258 259 260 261 263 266 268 270 272 274 272 267 261 257 256 256 255 255 258 263 268 271 273 273 274 275 277 278 279 280 281 284 286 286 287 290 294 297
197 197 198 196 195 195 198 201 205 210 216 219 220 221 223 225 229 233 238 241 245 247 248 246 246 248 250 251 251 251 251 251 252 251 250 250 252 253 253 252 253 253 254 255 256 255 254 254 255 256 259 264 268 271 272 271 268 263 260 258 255 253 253 253 256 261 267 269 269 270 271 272 273 276 278 280 281 283 285 287 288 289 290 293 296
199 199 200 198 197 199 203 207 211 214 216 216 218 221 224 227 232 237 240 242 245 247 247 246 246 248 250 252 254 254 253 253 253 253 252 252 253 254 254 255 254 254 254 253 254 255 254 253 254 255 258 261 265 265 265 264 262 260 259 258 255 252 251 252 257 263 267 267 266 267 269 271 273 277 280 282 283 284 285 286 286 287 290 294 298
202 202 201 200 200 203 207 211 212 213 215 217 221 225 228 232 237 240 241 243 245 245 245 245 246 247 248 249 250 252 252 253 253 254 254 253 253 253 254 254 254 254 255 255 255 255 254 252 251 252 254 257 260 260 260 260 261 263 264 263 258 255 256 258 260 262 264 265 266 268 270 272 276 279 280 281 282 283 284 283 284 288 293 296 298
202 202 202 202 204 205 207 210 212 216 220 223 227 230 234 236 240 241 242 243 244 244 244 244 244 244 245 246 246 247 248 250 251 252 253 253 252 251 251 251 252 253 254 255 254 253 253 253 252 251 252 254 256 258 260 261 262 265 268 267 262 260 261 264 264 263 265 267 268 270 272 275 277 278 279 280 281 282 281 282 285 290 293 296 296
197 199 200 201 203 204 206 210 214 220 226 230 230 231 232 234 236 239 240 241 241 241 240 239 240 240 241 241 241 242 244 247 248 250 251 251 250 249 249 248 248 249 250 252 253 253 253 255 255 253 251 251 253 257 261 264 265 266 266 265 263 263 265 268 268 267 268 268 268 270 273 275 276 277 278 280 282 282 284 287 290 292 293 294 295
197 198 199 201 202 204 206 210 216 222 229 232 229 227 229 231 232 235 237 238 238 237 235 235 235 235 235 236 238 241 245 247 248 249 250 249 248 247 244 243 244 248 250 252 253 253 252 252 253 254 253 253 255 257 259 260 262 261 261 263 265 267 267 267 267 267 267 267 268 270 273 275 278 280 281 282 283 285 287 289 291 291 291 292 291
206 208 212 212 213 213 214 216 220 225 228 228 226 225 228 230 230 231 233 234 234 234 233 232 231 231 233 236 240 243 245 246 245 246 248 249 246 242 239 239 245 250 252 252 254 255 255 254 255 256 256 256 256 257 257 258 258 258 260 262 265 265 265 264 264 264 266 268 270 272 275 278 281 283 283 284 284 285 285 286 287 287 287 286 286
214 216 217 217 218 220 220 219 218 218 219 220 221 224 226 227 228 228 229 229 230 230 230 229 228 229 231 236 239 241 242 243 243 244 246 246 243 240 239 242 248 252 252 253 256 258 258 256 255 255 254 253 252 253 254 255 256 256 257 259 260 260 261 262 262 264 266 269 272 275 278 280 281 281 283 284 284 283 283 284 284 284 284 284 284
214 214 212 211 211 211 211 210 209 209 210 212 216 221 225 225 224 224 223 222 223 224 225 227 229 230 232 235 239 242 243 242 242 243 244 243 240 239 241 245 250 252 253 255 256 255 254 254 254 255 255 254 253 252 252 254 255 256 257 257 257 258 259 261 263 266 268 271 274 276 277 278 279 280 281 282 282 281 281 281 282 283 285 285 284
202 207 209 210 209 208 208 206 203 204 206 208 212 218 223 223 222 220 218 217 218 221 223 226 229 232 235 238 240 243 244 242 238 236 237 238 239 241 245 249 251 253 255 256 255 254 253 253 253 255 256 256 255 255 255 257 259 260 259 259 259 260 261 263 265 268 270 273 275 277 278 279 280 280 280 280 280 281 282 282 284 285 285 284 282
194 198 201 206 211 213 213 210 207 205 207 209 213 218 221 223 224 224 222 221 222 224 227 228 230 233 236 238 239 240 242 241 238 237 238 240 242 244 246 248 249 251 253 255 255 255 255 255 255 255 256 257 258 258 259 260 260 259 259 259 260 261 263 265 267 270 273 274 276 277 278 278 279 279 279 281 282 283 283 284 284 284 283 281 280
206 203 202 205 211 214 213 212 210 208 207 210 214 216 218 221 225 227 227 228 229 230 231 232 233 234 235 236 236 237 238 240 241 243 244 245 246 245 246 248 250 252 253 254 254 254 255 256 256 256 257 258 259 261 261 261 261 261 262 263 264 266 267 269 270 272 273 275 276 277 279 279 280 280 281 282 283 283 284 284 284 283 282 281 280
Height
3178 3180 3183 3185 3187 3190 3192 3194 3197 3199 3201 3203 3205 3207 3209 3211 3213 3214 3216 3217 3219 3220 3222 3223 3225 3227 3228 3229 3230 3232 3233 3234 3235 3236 3237 3238 3239 3240 3241 3242 3243 3244 3245 3246 3247 3247 3248 3249 3249 3250 3250 3251 3251 3252 3252 3252 3252 3253 3253 3253 3253 3253 3253 3253 3253 3253 3252 3252 3251 3251 3251 3250 3249 3249 3248 3247 3246 3245 3244 3243 3242 3241 3241 3240 3238
3175 3177 3180 3182 3185 3188 3190 3192 3195 3197 3199 3201 3203 3205 3207 3209 3211 3212 3214 3216 3217 3219 3220 3222 3223 3225 3226 3227 3229 3230 3231 3233 3233 3234 3236 3237 3238 3239 3240 3241 3242 3243 3244 3245 3245 3246 3247 3248 3248 3249 3249 3250 3250 3251 3251 3251 3252 3252 3252 3252 3252 3252 3252 3252 3252 3252 3252 3251 3251 3251 3250 3249 3249 3248 3247 3246 3246 3245 3243 3242 3240 3239 3238 3237 3236
3173 3175 3177 3180 3182 3185 3187 3190 3192 3194 3196 3198 3200 3203 3205 3207 3208 3210 3212 3214 3215 3217 3219 3220 3222 3223 3224 3226 3227 3229 3230 3231 3232 3233 3234 3235 3237 3237 3238 3240 3241 3242 3242 3243 3244 3245 3246 3246 3247 3248 3248 3249 3249 3250 3250 3250 3250 3251 3251 3251 3251 3251 3251 3251 3250 3250 3250 3250 3250 3250 3249 3248 3248 3247 3246 3245 3244 3243 3242 3241 3239 3238 3237 3235 3234
3171 3173 3175 3177 3180 3182 3185 3187 3190 3192 3194 3196 3198 3201 3202 3204 3206 3208 3210 3212 3213 3215 3217 3218 3220 3221 3223 3224 3225 3227 3228 3229 3230 3231 3233 3234 3235 3236 3237 3238 3239 3240 3241 3242 3242 3243 3244 3245 3246 3246 3247 3247 3248 3248 3249 3249 3249 3249 3250 3249 3249 3249 3249 3249 3249 3249 3249 3249 3249 3248 3247 3247 3246 3246 3245 3244 3243 3241 3240 3238 3237 3235 3235 3234 3232
3169 3171 3173 3175 3177 3179 3182 3184 3187 3189 3192 3194 3196 3198 3200 3202 3204 3206 3208 3210 3211 3213 3215 3216 3218 3220 3221 3222 3224 3225 3226 3228 3228 3229 3231 3232 3233 3234 3235 3236 3237 3238 3239 3240 3241 3241 3242 3243 3244 3244 3245 3245 3246 3247 3247 3247 3248 3248 3248 3248 3248 3248 3248 3247 3247 3247 3247 3247 3247 3246 3246 3245 3244 3244 3244 3242 3240 3239 3238 3236 3234 3233 3232 3231 3229
3166 3169 3171 3172 3174 3176 3179 3181 3184 3187 3189 3191 3194 3196 3198 3200 3202 3203 3206 3207 3209 3211 3213 3214 3216 3218 3220 3221 3222 3223 3225 3226 3227 3228 3229 3230 3231 3232 3233 3234 3235 3236 3237 3238 3239 3239 3240 3241 3242 3242 3243 3243 3244 3245 3245 3245 3246 3246 3246 3246 3246 3246 3246 3246 3245 3245 3245 3245 3245 3244 3244 3243 3242 3242 3241 3239 3238 3236 3235 3234 3233 3231 3229 3227 3226
3164 3166 3168 3170 3172 3174 3176 3178 3181 3184 3186 3189 3191 3193 3195 3197 3199 3201 3203 3205 3207 3208 3210 3212 3214 3216 3218 3219 3220 3221 3223 3224 3225 3226 3227 3228 3229 3230 3231 3232 3233 3234 3235 3236 3236 3237 3238 3239 3239 3240 3240 3241 3242 3243 3243 3243 3243 3244 3244 3244 3244 3244 3244 3244 3243 3243 3243 3243 3242 3242 3241 3241 3240 3239 3238 3237 3235 3234 3232 3231 3231 3230 3227 3225 3222
3161 3163 3166 3167 3169 3171 3173 3176 3178 3181 3183 3186 3188 3190 3193 3195 3196 3198 3200 3202 3204 3206 3208 3210 3212 3214 3215 3217 3218 3219 3221 3222 3223 3224 3225 3226 3227 3228 3229 3230 3231 3232 3233 3234 3234 3235 3235 3236 3237 3238 3238 3239 3240 3240 3241 3241 3241 3242 3242 3242 3242 3242 3242 3242 3242 3241 3241 3241 3240 3240 3239 3238 3238 3237 3236 3234 3233 3231 3230 3229 3228 3227 3226 3223 3220
3158 3160 3163 3165 3167 3169 3171 3173 3176 3178 3180 3183 3185 3187 3190 3192 3194 3196 3198 3200 3202 3204 3206 3207 3209 3211 3213 3214 3215 3217 3218 3219 3221 3222 3224 3225 3226 3227 3228 3229 3229 3230 3231 3232 3232 3233 3234 3234 3235 3236 3236 3236 3237 3238 3239 3239 3240 3240 3240 3240 3240 3240 3240 3240 3240 3240 3239 3239 3238 3237 3236 3236 3235 3234 3233 3232 3230 3228 3227 3227 3225 3224 3222 3221 3219
3155 3157 3160 3162 3164 3167 3169 3171 3173 3175 3177 3179 3182 3184 3187 3189 3191 3193 3195 3198 3199 3201 3203 3205 3206 3208 3210 3211 3213 3214 3215 3217 3219 3220 3222 3223 3224 3225 3226 3227 3228 3228 3229 3230 3230 3231 3232 3232 3233 3233 3234 3234 3235 3236 3237 3237 3237 3238 3238 3238 3238 3238 3238 3238 3238 3238 3237 3236 3235 3235 3234 3233 3233 3232 3230 3229 3228 3227 3226 3224 3222 3221 3219 3218 3217
3152 3154 3157 3160 3162 3164 3166 3169 3170 3173 3175 3177 3179 3181 3183 3186 3188 3190 3192 3195 3197 3198 3200 3202 3204 3206 3207 3209 3210 3211 3213 3214 3216 3218 3220 3221 3222 3223 3224 3225 3226 3226 3227 3227 3228 3229 3230 3230 3231 3231 3231 3232 3233 3234 3234 3235 3235 3236 3236 3236 3236 3236 3236 3236 3236 3236 3235 3234 3233 3232 3232 3232 3231 3230 3229 3227 3226 3226 3224 3222 3220 3219 3217 3215 3213
3149 3152 3154 3157 3159 3161 3164 3166 3168 3170 3172 3174 3176 3179 3181 3183 3185 3187 3189 3192 3194 3196 3197 3199 3201 3203 3205 3206 3207 3209 3210 3212 3213 3215 3217 3219 3220 3221 3222 3222 3223 3224 3225 3225 3226 3227 3227 3228 3229 3229 3229 3229 3231 3232 3232 3233 3233 3234 3234 3234 3234 3233 3234 3234 3234 3234 3233 3232 3231 3231 3231 3230 3229 3228 3227 3225 3224 3224 3222 3220 3218 3216 3215 3213 3210
3146 3149 3151 3154 3156 3158 3161 3163 3166 3168 3170 3172 3174 3176 3178 3180 3182 3184 3186 3189 3191 3193 3194 3196 3198 3200 3202 3203 3204 3206 3208 3209 3210 3212 3214 3216 3217 3218 3219 3220 3221 3222 3222 3223 3224 3224 3225 3226 3226 3227 3227 3227 3228 3229 3230 3230 3231 3231 3231 3231 3231 3232 3232 3232 3231 3231 3231 3230 3229 3229 3230 3229 3227 3227 3226 3224 3222 3222 3219 3218 3216 3214 3212 3210 3208
3144 3146 3148 3151 3153 3156 3158 3161 3163 3165 3167 3169 3171 3173 3175 3177 3179 3181 3183 3185 3187 3189 3191 3193 3195 3197 3199 3200 3202 3204 3205 3206 3207 3209 3211 3213 3215 3215 3216 3217 3218 3219 3219 3220 3221 3222 3223 3224 3224 3225 3225 3225 3226 3226 3227 3228 3228 3229 3229 3229 3229 3229 3229 3229 3229 3229 3228 3228 3227 3227 3228 3227 3226 3226 3224 3222 3221 3219 3217 3215 3214 3211 3209 3207 3206
3140 3143 3145 3148 3150 3153 3155 3158 3160 3162 3164 3166 3168 3170 3172 3174 3176 3178 3180 3182 3184 3186 3188 3190 3191 3194 3195 3197 3199 3200 3202 3203 3204 3207 3209 3210 3212 3213 3213 3214 3215 3216 3216 3217 3218 3219 3220 3221 3221 3222 3223 3223 3224 3224 3225 3225 3225 3226 3226 3227 3227 3227 3227 3227 3227 3227 3226 3226 3225 3225 3225 3225 3225 3225 3223 3221 3219 3217 3215 3213 3212 3209 3207 3204 3203
3137 3140 3142 3145 3147 3150 3153 3155 3157 3159 3161 3163 3165 3167 3169 3170 3172 3175 3177 3179 3181 3183 3185 3186 3188 3190 3192 3194 3196 3197 3199 3200 3201 3204 3206 3208 3208 3209 3210 3211 3211 3212 3213 3215 3216 3217 3218 3218 3219 3219 3220 3221 3222 3222 3223 3223 3223 3223 3223 3224 3225 3225 3225 3225 3225 3225 3224 3224 3223 3223 3223 3223 3223 3224 3223 3221 3218 3216 3213 3211 3210 3207 3205 3203 3201
3134 3137 3139 3142 3144 3147 3149 3152 3154 3156 3157 3159 3162 3164 3166 3168 3170 3172 3174 3176 3177 3179 3182 3183 3185 3187 3189 3191 3192 3194 3195 3197 3198 3201 3203 3204 3205 3206 3207 3208 3208 3209 3211 3212 3213 3214 3215 3216 3216 3217 3217 3218 3219 3220 3221 3221 3221 3221 3221 3222 3222 3222 3223 3223 3222 3222 3222 3222 3221 3221 3221 3221 3220 3220 3220 3219 3217 3215 3212 3210 3208 3205 3203 3201 3199
3131 3134 3137 3139 3141 3144 3146 3148 3151 3153 3155 3157 3159 3161 3163 3165 3167 3169 3171 3173 3175 3176 3179 3181 3182 3184 3185 3187 3189 3191 3192 3193 3195 3197 3199 3201 3202 3203 3204 3204 3205 3206 3208 3209 3210 3211 3212 3213 3214 3214 3215 3216 3217 3217 3218 3219 3219 3219 3219 3219 3219 3220 3221 3221 3220 3219 3219 3219 3219 3218 3218 3217 3216 3215 3215 3214 3213 3211 3209 3208 3206 3203 3200 3198 3197
3128 3131 3134 3136 3138 3140 3143 3145 3148 3150 3152 3154 3156 3158 3161 3163 3164 3166 3168 3170 3172 3174 3176 3177 3179 3180 3182 3184 3185 3187 3189 3190 3191 3194 3196 3198 3199 3200 3200 3201 3202 3203 3205 3206 3207 3208 3209 3210 3211 3212 3213 3214 3214 3215 3216 3216 3216 3216 3217 3217 3217 3218 3218 3219 3218 3218 3217 3217 3216 3215 3214 3213 3212 3210 3209 3209 3208 3207 3206 3204 3202 3199 3197 3196 3193
3126 3128 3130 3132 3135 3137 3139 3142 3144 3147 3149 3152 3154 3156 3158 3160 3162 3164 3166 3167 3169 3171 3172 3174 3175 3177 3179 3180 3181 3183 3186 3187 3188 3190 3193 3195 3196 3197 3197 3197 3198 3200 3202 3203 3204 3205 3207 3208 3208 3209 3211 3211 3211 3212 3213 3214 3214 3214 3214 3214 3214 3215 3216 3216 3216 3216 3216 3216 3215 3214 3212 3211 3209 3208 3207 3205 3204 3204 3202 3201 3198 3195 3194 3192 3191
3123 3124 3127 3129 3131 3134 3136 3139 3142 3144 3147 3149 3151 3153 3155 3157 3159 3161 3163 3164 3166 3167 3169 3170 3172 3174 3176 3177 3178 3180 3182 3184 3185 3187 3190 3192 3193 3194 3194 3194 3196 3197 3199 3200 3201 3202 3204 3205 3205 3207 3208 3209 3209 3209 3210 3211 3211 3211 3211 3212 3212 3213 3213 3213 3213 3213 3214 3214 3213 3212 3211 3209 3208 3207 3205 3203 3201 3200 3199 3197 3195 3192 3190 3188 3187
3119 3121 3124 3126 3128 3130 3133 3136 3139 3141 3143 3145 3147 3149 3152 3154 3156 3158 3160 3161 3163 3164 3166 3168 3170 3172 3173 3175 3176 3178 3180 3181 3182 3184 3187 3189 3190 3191 3191 3192 3193 3194 3195 3196 3198 3199 3200 3201 3202 3203 3205 3206 3206 3206 3207 3207 3208 3209 3209 3209 3209 3210 3210 3210 3210 3211 3211 3211 3210 3209 3208 3207 3205 3204 3203 3201 3199 3197 3196 3194 3192 3190 3188 3186 3184
3116 3118 3121 3123 3125 3128 3130 3133 3136 3138 3140 3142 3144 3146 3149 3151 3153 3154 3156 3158 3160 3161 3163 3165 3167 3169 3171 3172 3174 3175 3177 3178 3179 3181 3184 3185 3187 3188 3188 3189 3190 3191 3192 3193 3195 3196 3197 3198 3199 3200 3201 3202 3203 3203 3204 3204 3204 3206 3206 3206 3206 3207 3207 3207 3207 3208 3208 3208 3207 3206 3205 3204 3202 3201 3200 3199 3197 3195 3194 3192 3190 3188 3186 3184 3182
3112 3115 3118 3120 3122 3125 3127 3131 3133 3135 3136 3139 3141 3143 3145 3148 3149 3151 3153 3155 3157 3158 3161 3162 3164 3166 3168 3169 3171 3173 3174 3175 3176 3178 3180 3182 3184 3185 3186 3187 3187 3188 3189 3190 3191 3193 3193 3194 3195 3196 3197 3199 3200 3200 3200 3200 3201 3202 3203 3203 3203 3204 3204 3204 3205 3205 3205 3204 3204 3203 3202 3201 3200 3198 3197 3196 3195 3193 3191 3190 3188 3186 3184 3182 3179
3108 3112 3114 3117 3119 3122 3125 3128 3130 3132 3134 3136 3138 3140 3142 3145 3146 3148 3150 3153 3154 3156 3158 3160 3162 3164 3165 3167 3169 3170 3171 3172 3173 3175 3177 3179 3181 3182 3183 3184 3185 3185 3186 3187 3188 3189 3189 3190 3192 3192 3194 3195 3196 3197 3197 3197 3198 3199 3200 3200 3201 3201 3201 3202 3202 3202 3201 3201 3200 3199 3198 3197 3196 3195 3194 3193 3192 3190 3188 3187 3185 3184 3182 3180 3177
3105 3108 3111 3114 3117 3120 3123 3125 3128 3129 3131 3133 3136 3138 3140 3142 3144 3146 3148 3150 3152 3154 3156 3157 3159 3161 3162 3164 3166 3167 3169 3170 3171 3172 3174 3176 3178 3179 3180 3181 3182 3182 3183 3184 3185 3185 3186 3187 3188 3189 3190 3191 3192 3193 3194 3194 3195 3195 3196 3197 3198 3198 3198 3199 3199 3199 3198 3197 3196 3195 3194 3193 3192 3191 3190 3189 3188 3187 3185 3184 3182 3181 3179 3177 3175
3102 3105 3108 3111 3114 3117 3120 3122 3125 3127 3128 3131 3133 3135 3137 3139 3141 3143 3146 3148 3149 3151 3153 3155 3156 3158 3160 3162 3163 3165 3166 3168 3168 3169 3171 3173 3175 3176 3177 3178 3179 3179 3180 3180 3182 3183 3184 3185 3185 3186 3187 3188 3189 3189 3190 3191 3191 3192 3193 3193 3194 3195 3195 3196 3196 3195 3195 3194 3193 3192 3191 3189 3188 3187 3186 3185 3184 3183 3182 3180 3179 3178 3177 3175 3174
3099 3102 3105 3109 3111 3114 3117 3119 3122 3124 3126 3128 3131 3133 3135 3137 3139 3141 3143 3145 3147 3149 3151 3152 3154 3156 3158 3160 3161 3162 3164 3165 3166 3167 3168 3170 3172 3173 3174 3175 3176 3176 3177 3178 3179 3180 3180 3181 3182 3183 3183 3184 3185 3185 3186 3187 3187 3188 3189 3190 3191 3191 3191 3191 3191 3191 3191 3190 3189 3188 3187 3186 3184 3183 3182 3181 3181 3180 3179 3177 3176 3175 3174 3172 3171
3096 3099 3102 3106 3109 3112 3114 3117 3119 3122 3124 3126 3128 3130 3132 3134 3136 3138 3140 3143 3145 3146 3148 3150 3152 3153 3155 3156 3158 3159 3160 3162 3163 3164 3164 3166 3168 3169 3170 3171 3172 3172 3173 3175 3175 3176 3176 3177 3178 3179 3180 3181 3181 3181 3181 3182 3183 3184 3185 3186 3186 3187 3187 3187 3187 3186 3186 3186 3185 3184 3183 3182 3181 3180 3179 3178 3177 3176 3175 3174 3173 3172 3170 3169 3167
3093 3096 3100 3103 3106 3109 3111 3114 3117 3119 3121 3123 3125 3127 3130 3132 3133 3135 3137 3140 3142 3143 3144 3146 3148 3150 3151 3153 3153 3155 3156 3157 3159 3159 3160 3161 3163 3165 3166 3167 3167 3168 3169 3170 3171 3172 3172 3173 3174 3176 3176 3176 3177 3178 3177 3178 3180 3181 3181 3182 3182 3182 3182 3182 3182 3181 3181 3181 3180 3180 3179 3178 3177 3177 3176 3174 3173 3172 3171 3170 3169 3168 3166 3165 3163
3090 3093 3097 3100 3103 3106 3108 3111 3114 3116 3118 3121 3122 3124 3127 3129 3131 3132 3134 3137 3139 3140 3141 3143 3144 3146 3148 3149 3149 3151 3152 3154 3155 3156 3156 3157 3159 3160 3162 3162 3163 3164 3166 3167 3168 3168 3169 3169 3170 3172 3173 3172 3173 3174 3174 3174 3176 3177 3177 3177 3177 3177 3177 3177 3177 3176 3176 3176 3175 3175 3174 3173 3172 3172 3171 3170 3169 3168 3167 3166 3165 3164 3162 3160 3159
3087 3091 3094 3097 3100 3103 3105 3108 3111 3113 3115 3118 3120 3122 3124 3127 3128 3130 3132 3134 3135 3137 3138 3140 3141 3143 3144 3145 3146 3147 3149 3151 3152 3153 3153 3154 3155 3156 3157 3159 3160 3161 3162 3163 3164 3164 3165 3166 3167 3168 3169 3168 3169 3170 3170 3171 3172 3172 3172 3172 3172 3172 3172 3172 3171 3172 3172 3171 3170 3170 3169 3168 3167 3167 3166 3165 3164 3164 3163 3162 3161 3159 3158 3156 3155
3085 3088 3091 3094 3097 3099 3102 3105 3108 3111 3113 3115 3118 3120 3122 3124 3126 3127 3129 3131 3132 3134 3135 3136 3137 3139 3140 3141 3142 3144 3146 3147 3149 3150 3150 3151 3151 3152 3153 3155 3156 3157 3158 3158 3159 3160 3161 3162 3162 3163 3164 3164 3165 3166 3166 3166 3167 3167 3167 3168 3167 3167 3167 3167 3167 3167 3167 3166 3165 3165 3164 3164 3163 3163 3162 3161 3160 3160 3158 3157 3156 3155 3154 3152 3151
3082 3085 3088 3091 3094 3097 3100 3103 3105 3108 3111 3113 3116 3118 3120 3121 3123 3124 3126 3127 3129 3130 3132 3133 3134 3135 3137 3138 3139 3140 3142 3143 3145 3146 3146 3147 3147 3148 3149 3151 3152 3153 3153 3154 3155 3156 3157 3157 3157 3158 3159 3160 3160 3160 3161 3162 3162 3162 3162 3163 3162 3161 3162 3163 3163 3162 3162 3162 3162 3161 3161 3160 3159 3159 3158 3157 3156 3155 3154 3153 3152 3151 3150 3149 3147
3078 3081 3085 3088 3091 3095 3098 3100 3103 3106 3108 3111 3113 3115 3116 3118 3119 3121 3122 3124 3125 3127 3129 3130 3131 3132 3133 3135 3136 3137 3138 3139 3141 3142 3142 3143 3144 3145 3146 3147 3148 3149 3150 3150 3151 3152 3152 3153 3153 3154 3155 3155 3155 3155 3156 3157 3157 3157 3157 3157 3156 3157 3159 3159 3159 3158 3159 3159 3158 3157 3157 3156 3155 3154 3154 3153 3152 3151 3150 3149 3148 3147 3146 3145 3144
3076 3079 3083 3086 3089 3092 3095 3098 3101 3103 3106 3108 3110 3112 3113 3115 3116 3118 3119 3121 3122 3124 3126 3127 3129 3130 3131 3132 3133 3134 3135 3136 3137 3138 3139 3140 3140 3141 3143 3144 3144 3145 3146 3147 3147 3148 3148 3149 3149 3150 3151 3151 3151 3151 3151 3151 3152 3152 3152 3151 3152 3154 3154 3154 3154 3154 3155 3154 3153 3153 3153 3152 3151 3150 3149 3148 3147 3147 3146 3145 3144 3143 3142 3142 3140
3073 3076 3080 3084 3087 3091 3093 3095 3097 3100 3103 3105 3107 3108 3110 3112 3113 3115 3116 3117 3119 3121 3123 3125 3126 3127 3128 3129 3130 3131 3132 3133 3134 3135 3137 3137 3137 3139 3140 3141 3141 3142 3143 3143 3143 3144 3145 3145 3146 3147 3147 3147 3147 3147 3146 3146 3146 3147 3146 3146 3148 3149 3148 3148 3149 3149 3149 3148 3148 3148 3148 3148 3147 3147 3146 3144 3143 3143 3142 3141 3140 3139 3138 3137 3136
3069 3073 3077 3080 3084 3087 3089 3091 3093 3096 3099 3102 3104 3106 3107 3108 3110 3111 3112 3113 3115 3118 3120 3121 3123 3124 3125 3126 3127 3128 3129 3130 3131 3132 3134 3134 3134 3136 3137 3137 3137 3138 3138 3139 3140 3141 3141 3142 3142 3143 3143 3143 3143 3142 3141 3141 3143 3143 3143 3143 3144 3144 3142 3142 3143 3144 3144 3144 3143 3144 3144 3144 3143 3143 3142 3140 3139 3139 3137 3137 3136 3135 3134 3133 3132
3066 3070 3073 3076 3079 3081 3082 3086 3089 3092 3095 3098 3101 3103 3104 3105 3106 3107 3108 3110 3112 3114 3116 3118 3120 3121 3121 3122 3123 3124 3124 3125 3127 3128 3130 3130 3131 3131 3132 3132 3133 3134 3134 3135 3136 3137 3138 3138 3138 3138 3138 3139 3139 3139 3138 3139 3140 3139 3139 3139 3139 3138 3137 3137 3138 3138 3139 3139 3139 3140 3140 3140 3138 3138 3138 3137 3136 3134 3133 3132 3132 3132 3131 3129 3128
3063 3066 3069 3072 3074 3076 3079 3083 3086 3089 3091 3094 3097 3099 3101 3102 3102 3104 3106 3108 3109 3110 3112 3115 3116 3117 3118 3118 3119 3119 3120 3121 3122 3124 3125 3126 3126 3127 3127 3128 3129 3130 3131 3132 3132 3133 3133 3133 3133 3133 3134 3134 3135 3135 3135 3135 3135 3134 3133 3134 3134 3133 3132 3133 3133 3133 3134 3135 3135 3136 3136 3135 3134 3133 3133 3132 3131 3131 3130 3129 3128 3128 3127 3126 3125
3060 3063 3066 3069 3071 3074 3078 3081 3084 3086 3088 3091 3094 3096 3098 3099 3099 3101 3103 3104 3105 3107 3109 3110 3112 3113 3114 3115 3115 3115 3116 3117 3118 3119 3120 3121 3122 3122 3123 3124 3124 3125 3126 3127 3128 3128 3129 3129 3129 3130 3130 3131 3131 3131 3130 3130 3129 3127 3127 3128 3128 3127 3128 3130 3131 3131 3131 3131 3132 3132 3132 3131 3130 3129 3128 3128 3127 3127 3126 3126 3125 3124 3123 3122 3121
3059 3061 3064 3066 3069 3073 3076 3079 3081 3083 3086 3088 3091 3093 3094 3095 3096 3098 3099 3100 3101 3102 3104 3105 3107 3109 3110 3110 3110 3110 3111 3113 3114 3114 3115 3116 3117 3117 3118 3119 3120 3120 3121 3122 3123 3124 3124 3124 3125 3126 3126 3126 3126 3125 3125 3125 3124 3123 3123 3124 3124 3125 3126 3128 3128 3128 3128 3128 3128 3128 3127 3126 3125 3125 3124 3123 3122 3122 3122 3122 3121 3120 3119 3119 3118
3056 3059 3062 3065 3068 3071 3073 3076 3078 3081 3083 3085 3087 3089 3090 3091 3092 3093 3094 3095 3096 3098 3099 3101 3103 3104 3104 3105 3106 3106 3107 3108 3109 3110 3111 3111 3112 3112 3113 3114 3115 3116 3117 3118 3118 3118 3118 3119 3121 3122 3123 3122 3121 3121 3120 3120 3120 3120 3120 3121 3122 3122 3123 3123 3123 3124 3124 3125 3124 3123 3122 3122 3122 3121 3120 3119 3119 3119 3119 3118 3118 3117 3116 3115 3114
3052 3055 3058 3062 3065 3067 3069 3072 3075 3077 3079 3081 3083 3084 3086 3087 3088 3089 3090 3091 3092 3093 3095 3097 3098 3099 3100 3100 3101 3101 3102 3103 3104 3105 3106 3107 3107 3107 3108 3110 3111 3112 3112 3112 3112 3112 3113 3114 3116 3118 3118 3118 3117 3118 3117 3117 3117 3117 3117 3118 3118 3119 3118 3119 3119 3120 3121 3121 3120 3119 3118 3118 3118 3117 3116 3116 3115 3115 3114 3114 3114 3113 3112 3111 3111
3049 3052 3054 3057 3059 3062 3065 3067 3069 3072 3075 3077 3078 3080 3081 3082 3084 3085 3086 3087 3088 3090 3091 3092 3093 3094 3095 3095 3096 3097 3098 3099 3101 3101 3102 3102 3103 3104 3105 3106 3106 3107 3107 3108 3108 3108 3109 3109 3110 3111 3112 3113 3113 3114 3114 3114 3114 3114 3114 3114 3114 3115 3114 3115 3116 3116 3117 3117 3117 3116 3115 3114 3114 3113 3113 3113 3112 3111 3110 3110 3110 3109 3108 3108 3107
3047 3050 3052 3054 3055 3057 3060 3062 3065 3068 3070 3073 3074 3075 3077 3078 3080 3081 3082 3084 3085 3086 3087 3088 3089 3090 3091 3092 3093 3094 3095 3096 3097 3098 3098 3098 3099 3100 3101 3102 3103 3103 3103 3104 3104 3105 3105 3106 3106 3107 3108 3108 3109 3110 3110 3110 3111 3111 3111 3110 3111 3111 3111 3112 3113 3113 3113 3113 3113 3113 3112 3111 3111 3110 3109 3109 3109 3108 3107 3106 3106 3106 3105 3104 3103
3045 3048 3051 3052 3053 3054 3056 3058 3060 3063 3066 3068 3070 3072 3074 3075 3077 3078 3079 3080 3081 3082 3083 3084 3086 3087 3088 3089 3090 3091 3092 3092 3093 3094 3094 3095 3096 3097 3098 3099 3099 3100 3100 3101 3101 3101 3102 3102 3103 3103 3104 3104 3105 3106 3107 3107 3107 3107 3107 3107 3107 3108 3108 3108 3109 3109 3109 3109 3109 3108 3108 3107 3106 3105 3105 3104 3105 3104 3103 3102 3102 3101 3101 3100 3100
3044 3046 3048 3048 3049 3050 3052 3054 3056 3059 3062 3064 3067 3069 3071 3073 3074 3075 3075 3076 3077 3079 3080 3082 3083 3083 3084 3086 3086 3087 3088 3089 3090 3090 3091 3092 3093 3094 3095 3095 3096 3096 3097 3097 3097 3098 3098 3099 3099 3099 3100 3100 3101 3102 3102 3102 3103 3103 3103 3103 3104 3104 3104 3104 3104 3105 3105 3105 3104 3104 3103 3103 3102 3102 3101 3100 3100 3100 3099 3098 3097 3097 3096 3096 3095
3042 3043 3044 3045 3046 3049 3051 3053 3054 3057 3059 3061 3064 3066 3068 3070 3071 3071 3072 3073 3074 3076 3077 3078 3079 3080 3081 3082 3083 3084 3084 3085 3086 3087 3088 3089 3090 3090 3091 3092 3092 3092 3093 3093 3093 3094 3095 3095 3095 3096 3096 3096 3097 3097 3098 3098 3099 3099 3099 3100 3100 3100 3100 3100 3101 3101 3101 3101 3100 3100 3099 3099 3098 3097 3096 3096 3095 3095 3094 3093 3093 3092 3092 3091 3091
3039 3040 3042 3043 3046 3049 3051 3053 3054 3055 3057 3059 3061 3064 3065 3067 3068 3069 3069 3070 3071 3073 3074 3075 3076 3077 3078 3079 3080 3081 3082 3082 3083 3084 3085 3086 3086 3087 3087 3088 3088 3089 3089 3089 3090 3090 3091 3092 3092 3093 3093 3093 3094 3094 3094 3095 3095 3095 3096 3096 3096 3097 3097 3097 3098 3098 3097 3097 3096 3095 3095 3095 3094 3093 3092 3091 3091 3090 3089 3088 3088 3087 3087 3086 3085
3038 3039 3041 3043 3046 3049 3051 3053 3054 3054 3055 3057 3059 3061 3062 3064 3065 3065 3066 3067 3068 3070 3071 3072 3073 3074 3075 3076 3077 3078 3079 3079 3080 3080 3081 3082 3082 3083 3084 3084 3085 3085 3086 3086 3087 3087 3088 3088 3089 3089 3090 3090 3090 3090 3091 3091 3091 3092 3092 3093 3093 3094 3094 3094 3094 3094 3093 3092 3092 3091 3090 3090 3089 3088 3087 3087 3086 3084 3084 3083 3082 3082 3081 3080 3080